Time,TemperatureF,DewpointF,PressureIn,WindDirection,WindDirectionDegrees,WindSpeedMPH,WindSpeedGustMPH,Humidity,HourlyPrecipIn,Conditions,Clouds,dailyrainin,SoftwareType,DateUTC
2013-06-24 00:01:00,71.6,69.2,30.13,North,-999,0.0,0.0,92,0.00,,,-99.99,WeatherLink 5.7,2013-06-24 04:01:00,
2013-06-24 00:11:00,71.5,69.1,30.12,North,-999,0.0,0.0,92,0.00,,,-99.99,WeatherLink 5.7,2013-06-24 04:11:00,
2013-06-24 00:21:00,71.4,69.3,30.12,North,-999,0.0,0.0,93,0.00,,,-99.99,WeatherLink 5.7,2013-06-24 04:21:00,
2013-06-24 00:31:00,71.3,69.2,30.12,North,-999,0.0,0.0,93,0.00,,,-99.99,WeatherLink 5.7,2013-06-24 04:31:00,
2013-06-24 00:41:00,71.3,69.2,30.11,North,-999,0.0,0.0,93,0.00,,,-99.99,WeatherLink 5.7,2013-06-24 04:41:00,
2013-06-24 00:51:00,71.2,69.1,30.12,North,-999,0.0,0.0,93,0.00,,,-99.99,WeatherLink 5.7,2013-06-24 04:51:00,
2013-06-24 01:01:00,71.1,69.0,30.12,North,-999,0.0,0.0,93,0.00,,,-99.99,WeatherLink 5.7,2013-06-24 05:01:00,
2013-06-24 01:11:00,71.1,69.0,30.12,North,-999,0.0,0.0,93,0.00,,,-99.99,WeatherLink 5.7,2013-06-24 05:11:00,
2013-06-24 01:21:00,71.0,69.2,30.12,North,-999,0.0,0.0,94,0.00,,,-99.99,WeatherLink 5.7,2013-06-24 05:21:00,
2013-06-24 01:31:00,71.1,69.3,30.12,North,-999,0.0,1.0,94,0.00,,,-99.99,WeatherLink 5.7,2013-06-24 05:31:00,
2013-06-24 01:40:00,71.1,69.3,30.12,North,-999,0.0,0.0,94,0.00,,,-99.99,WeatherLink 5.7,2013-06-24 05:40:00,
2013-06-24 01:51:00,71.1,69.3,30.12,North,-999,0.0,1.0,94,0.00,,,-99.99,WeatherLink 5.7,2013-06-24 05:51:00,
2013-06-24 02:01:00,71.1,69.3,30.11,NE,45,0.0,2.0,94,0.00,,,-99.99,WeatherLink 5.7,2013-06-24 06:01:00,
2013-06-24 02:10:00,71.1,69.3,30.11,NE,45,0.0,3.0,94,0.00,,,-99.99,WeatherLink 5.7,2013-06-24 06:10:00,
2013-06-24 02:21:00,71.2,69.4,30.11,North,-999,0.0,0.0,94,0.00,,,-99.99,WeatherLink 5.7,2013-06-24 06:21:00,
2013-06-24 02:30:00,71.1,69.3,30.11,NE,45,0.0,1.0,94,0.00,,,-99.99,WeatherLink 5.7,2013-06-24 06:30:00,
2013-06-24 02:40:00,71.1,69.3,30.11,North,-999,0.0,0.0,94,0.00,,,-99.99,WeatherLink 5.7,2013-06-24 06:40:00,
2013-06-24 02:51:00,71.0,69.2,30.11,ENE,67,0.0,1.0,94,0.00,,,-99.99,WeatherLink 5.7,2013-06-24 06:51:00,
2013-06-24 03:00:00,71.0,69.2,30.11,ENE,67,0.0,1.0,94,0.00,,,-99.99,WeatherLink 5.7,2013-06-24 07:00:00,
2013-06-24 03:11:00,70.9,69.1,30.10,ENE,67,0.0,1.0,94,0.00,,,-99.99,WeatherLink 5.7,2013-06-24 07:11:00,
2013-06-24 03:20:00,70.8,69.0,30.10,North,-999,0.0,1.0,94,0.00,,,-99.99,WeatherLink 5.7,2013-06-24 07:20:00,
2013-06-24 03:30:00,70.7,69.2,30.11,North,-999,0.0,0.0,95,0.00,,,-99.99,WeatherLink 5.7,2013-06-24 07:30:00,
2013-06-24 03:41:00,70.7,69.2,30.10,North,-999,0.0,0.0,95,0.00,,,-99.99,WeatherLink 5.7,2013-06-24 07:41:00,
2013-06-24 03:50:00,70.6,69.1,30.10,ENE,67,0.0,1.0,95,0.00,,,-99.99,WeatherLink 5.7,2013-06-24 07:50:00,
2013-06-24 04:01:00,70.6,69.1,30.10,ENE,67,0.0,1.0,95,0.00,,,-99.99,WeatherLink 5.7,2013-06-24 08:01:00,
2013-06-24 04:10:00,70.5,69.0,30.10,ENE,67,0.0,1.0,95,0.00,,,-99.99,WeatherLink 5.7,2013-06-24 08:10:00,
2013-06-24 04:21:00,70.4,68.9,30.10,North,-999,0.0,1.0,95,0.00,,,-99.99,WeatherLink 5.7,2013-06-24 08:21:00,
2013-06-24 04:30:00,70.3,68.8,30.09,North,-999,0.0,0.0,95,0.00,,,-99.99,WeatherLink 5.7,2013-06-24 08:30:00,
2013-06-24 04:41:00,70.3,68.8,30.10,ENE,67,0.0,1.0,95,0.00,,,-99.99,WeatherLink 5.7,2013-06-24 08:41:00,
2013-06-24 04:50:00,70.2,68.7,30.10,North,-999,0.0,0.0,95,0.00,,,-99.99,WeatherLink 5.7,2013-06-24 08:50:00,
2013-06-24 05:01:00,70.1,68.9,30.10,North,-999,0.0,0.0,96,0.00,,,-99.99,WeatherLink 5.7,2013-06-24 09:01:00,
2013-06-24 05:10:00,70.0,68.8,30.10,North,-999,0.0,0.0,96,0.00,,,-99.99,WeatherLink 5.7,2013-06-24 09:10:00,
2013-06-24 05:20:00,69.9,68.4,30.11,North,-999,0.0,0.0,95,0.00,,,-99.99,WeatherLink 5.7,2013-06-24 09:20:00,
2013-06-24 05:31:00,69.7,68.2,30.10,North,-999,0.0,0.0,95,0.00,,,-99.99,WeatherLink 5.7,2013-06-24 09:31:00,
2013-06-24 05:40:00,69.6,68.1,30.11,ENE,67,0.0,1.0,95,0.00,,,-99.99,WeatherLink 5.7,2013-06-24 09:40:00,
2013-06-24 05:51:00,69.5,68.3,30.10,North,-999,0.0,0.0,96,0.00,,,-99.99,WeatherLink 5.7,2013-06-24 09:51:00,
2013-06-24 06:00:00,69.5,68.3,30.11,North,-999,0.0,0.0,96,0.00,,,-99.99,WeatherLink 5.7,2013-06-24 10:00:00,
2013-06-24 06:11:00,69.4,68.2,30.11,North,-999,0.0,0.0,96,0.00,,,-99.99,WeatherLink 5.7,2013-06-24 10:11:00,
2013-06-24 06:20:00,69.5,68.3,30.11,North,-999,0.0,0.0,96,0.00,,,-99.99,WeatherLink 5.7,2013-06-24 10:20:00,
2013-06-24 06:31:00,69.6,68.4,30.11,North,-999,0.0,0.0,96,0.00,,,-99.99,WeatherLink 5.7,2013-06-24 10:31:00,
2013-06-24 06:41:00,69.8,68.6,30.11,North,-999,0.0,0.0,96,0.00,,,-99.99,WeatherLink 5.7,2013-06-24 10:41:00,
2013-06-24 06:50:00,69.9,68.7,30.11,ENE,67,0.0,1.0,96,0.00,,,-99.99,WeatherLink 5.7,2013-06-24 10:50:00,
2013-06-24 07:01:00,70.1,68.9,30.11,ENE,67,0.0,1.0,96,0.00,,,-99.99,WeatherLink 5.7,2013-06-24 11:01:00,
2013-06-24 07:10:00,70.4,68.9,30.11,ENE,67,0.0,1.0,95,0.00,,,-99.99,WeatherLink 5.7,2013-06-24 11:10:00,
2013-06-24 07:21:00,70.8,69.0,30.11,ENE,67,0.0,1.0,94,0.00,,,-99.99,WeatherLink 5.7,2013-06-24 11:21:00,
2013-06-24 07:30:00,71.1,69.3,30.11,ENE,67,0.0,1.0,94,0.00,,,-99.99,WeatherLink 5.7,2013-06-24 11:30:00,
2013-06-24 07:41:00,71.5,69.4,30.11,ENE,67,0.0,1.0,93,0.00,,,-99.99,WeatherLink 5.7,2013-06-24 11:41:00,
2013-06-24 07:50:00,71.8,69.7,30.11,ENE,67,0.0,1.0,93,0.00,,,-99.99,WeatherLink 5.7,2013-06-24 11:50:00,
2013-06-24 08:01:00,72.2,69.4,30.11,ENE,67,0.0,1.0,91,0.00,,,-99.99,WeatherLink 5.7,2013-06-24 12:01:00,
2013-06-24 08:10:00,72.7,69.9,30.12,ENE,67,0.0,1.0,91,0.00,,,-99.99,WeatherLink 5.7,2013-06-24 12:10:00,
2013-06-24 08:20:00,73.0,69.9,30.12,North,-999,0.0,0.0,90,0.00,,,-99.99,WeatherLink 5.7,2013-06-24 12:20:00,
2013-06-24 08:31:00,73.3,69.9,30.12,ENE,67,0.0,1.0,89,0.00,,,-99.99,WeatherLink 5.7,2013-06-24 12:31:00,
2013-06-24 08:40:00,73.7,70.3,30.12,North,-999,0.0,0.0,89,0.00,,,-99.99,WeatherLink 5.7,2013-06-24 12:40:00,
2013-06-24 08:51:00,74.2,70.4,30.12,ENE,67,0.0,1.0,88,0.00,,,-99.99,WeatherLink 5.7,2013-06-24 12:51:00,
2013-06-24 09:00:00,74.8,70.7,30.12,ENE,67,0.0,1.0,87,0.00,,,-99.99,WeatherLink 5.7,2013-06-24 13:00:00,
2013-06-24 09:11:00,75.2,70.4,30.13,ENE,67,0.0,1.0,85,0.00,,,-99.99,WeatherLink 5.7,2013-06-24 13:11:00,
2013-06-24 09:21:00,75.6,70.8,30.12,ENE,67,0.0,1.0,85,0.00,,,-99.99,WeatherLink 5.7,2013-06-24 13:21:00,
2013-06-24 09:31:00,76.1,70.9,30.12,North,-999,0.0,0.0,84,0.00,,,-99.99,WeatherLink 5.7,2013-06-24 13:31:00,
2013-06-24 09:41:00,76.5,70.6,30.12,North,-999,0.0,1.0,82,0.00,,,-99.99,WeatherLink 5.7,2013-06-24 13:41:00,
2013-06-24 09:52:00,77.1,70.5,30.12,North,-999,0.0,1.0,80,0.00,,,-99.99,WeatherLink 5.7,2013-06-24 13:52:00,
2013-06-24 10:00:00,77.6,70.9,30.11,ENE,67,0.0,1.0,80,0.00,,,-99.99,WeatherLink 5.7,2013-06-24 14:00:00,
2013-06-24 10:11:00,78.1,71.4,30.11,North,-999,0.0,0.0,80,0.00,,,-99.99,WeatherLink 5.7,2013-06-24 14:11:00,
2013-06-24 10:20:00,78.6,71.5,30.11,ENE,67,0.0,1.0,79,0.00,,,-99.99,WeatherLink 5.7,2013-06-24 14:20:00,
2013-06-24 10:31:00,79.1,71.3,30.12,ENE,67,0.0,2.0,77,0.00,,,-99.99,WeatherLink 5.7,2013-06-24 14:31:00,
2013-06-24 10:40:00,79.5,72.0,30.11,ENE,67,0.0,1.0,78,0.00,,,-99.99,WeatherLink 5.7,2013-06-24 14:40:00,
2013-06-24 10:50:00,79.9,72.4,30.12,ENE,67,0.0,1.0,78,0.00,,,-99.99,WeatherLink 5.7,2013-06-24 14:50:00,
2013-06-24 11:01:00,80.2,72.3,30.12,ENE,67,0.0,1.0,77,0.00,,,-99.99,WeatherLink 5.7,2013-06-24 15:01:00,
2013-06-24 11:11:00,80.5,72.2,30.12,ENE,67,0.0,2.0,76,0.00,,,-99.99,WeatherLink 5.7,2013-06-24 15:11:00,
2013-06-24 11:21:00,80.9,72.2,30.12,North,-999,0.0,1.0,75,0.00,,,-99.99,WeatherLink 5.7,2013-06-24 15:21:00,
2013-06-24 11:30:00,81.3,72.2,30.11,ENE,67,0.0,2.0,74,0.00,,,-99.99,WeatherLink 5.7,2013-06-24 15:30:00,
2013-06-24 11:40:00,81.7,72.6,30.12,ESE,112,0.0,2.0,74,0.00,,,-99.99,WeatherLink 5.7,2013-06-24 15:40:00,
2013-06-24 11:50:00,82.1,73.0,30.11,ESE,112,0.0,2.0,74,0.00,,,-99.99,WeatherLink 5.7,2013-06-24 15:50:00,
2013-06-24 12:01:00,82.4,72.5,30.11,East,90,0.0,3.0,72,0.00,,,-99.99,WeatherLink 5.7,2013-06-24 16:01:00,
2013-06-24 12:10:00,82.8,72.8,30.11,East,90,0.0,2.0,72,0.00,,,-99.99,WeatherLink 5.7,2013-06-24 16:10:00,
2013-06-24 12:20:00,83.2,72.4,30.11,East,90,0.0,2.0,70,0.00,,,-99.99,WeatherLink 5.7,2013-06-24 16:20:00,
2013-06-24 12:30:00,83.4,73.0,30.11,ENE,67,0.0,2.0,71,0.00,,,-99.99,WeatherLink 5.7,2013-06-24 16:30:00,
2013-06-24 12:40:00,83.0,72.6,30.12,ENE,67,0.0,1.0,71,0.00,,,-99.99,WeatherLink 5.7,2013-06-24 16:40:00,
2013-06-24 12:50:00,83.3,72.9,30.11,ENE,67,0.0,2.0,71,0.00,,,-99.99,WeatherLink 5.7,2013-06-24 16:50:00,
2013-06-24 13:00:00,83.7,73.3,30.11,ENE,67,0.0,2.0,71,0.00,,,-99.99,WeatherLink 5.7,2013-06-24 17:00:00,
2013-06-24 13:10:00,84.1,72.8,30.10,North,0,0.0,2.0,69,0.00,,,-99.99,WeatherLink 5.7,2013-06-24 17:10:00,
2013-06-24 13:20:00,84.4,70.9,30.09,NNE,22,0.0,3.0,64,0.00,,,-99.99,WeatherLink 5.7,2013-06-24 17:20:00,
2013-06-24 13:31:00,84.8,72.2,30.10,SE,135,0.0,2.0,66,0.00,,,-99.99,WeatherLink 5.7,2013-06-24 17:31:00,
2013-06-24 13:40:00,85.2,72.6,30.09,ENE,67,0.0,2.0,66,0.00,,,-99.99,WeatherLink 5.7,2013-06-24 17:40:00,
2013-06-24 13:50:00,85.5,72.4,30.08,ENE,67,0.0,2.0,65,0.00,,,-99.99,WeatherLink 5.7,2013-06-24 17:50:00,
2013-06-24 14:01:00,85.6,72.0,30.08,North,0,0.0,3.0,64,0.00,,,-99.99,WeatherLink 5.7,2013-06-24 18:01:00,
2013-06-24 14:11:00,85.9,71.4,30.07,ENE,67,1.0,3.0,62,0.00,,,-99.99,WeatherLink 5.7,2013-06-24 18:11:00,
2013-06-24 14:21:00,86.3,72.2,30.07,ENE,67,0.0,3.0,63,0.00,,,-99.99,WeatherLink 5.7,2013-06-24 18:21:00,
2013-06-24 14:31:00,86.4,72.3,30.06,SE,135,1.0,4.0,63,0.00,,,-99.99,WeatherLink 5.7,2013-06-24 18:31:00,
2013-06-24 14:41:00,85.9,73.2,30.05,East,90,0.0,2.0,66,0.00,,,-99.99,WeatherLink 5.7,2013-06-24 18:41:00,
2013-06-24 14:51:00,85.3,72.2,30.04,East,90,0.0,2.0,65,0.00,,,-99.99,WeatherLink 5.7,2013-06-24 18:51:00,
2013-06-24 15:01:00,84.6,71.1,30.05,SE,135,0.0,2.0,64,0.00,,,-99.99,WeatherLink 5.7,2013-06-24 19:01:00,
2013-06-24 15:11:00,83.9,70.9,30.05,ENE,67,0.0,2.0,65,0.00,,,-99.99,WeatherLink 5.7,2013-06-24 19:11:00,
2013-06-24 15:21:00,83.2,71.5,30.06,North,-999,0.0,1.0,68,0.00,,,-99.99,WeatherLink 5.7,2013-06-24 19:21:00,
2013-06-24 15:31:00,82.8,71.6,30.05,North,-999,0.0,0.0,69,0.00,,,-99.99,WeatherLink 5.7,2013-06-24 19:31:00,
2013-06-24 15:42:00,82.3,71.5,30.05,ENE,67,0.0,1.0,70,0.00,,,-99.99,WeatherLink 5.7,2013-06-24 19:42:00,
2013-06-24 15:51:00,81.8,71.9,30.05,North,-999,0.0,1.0,72,0.00,,,-99.99,WeatherLink 5.7,2013-06-24 19:51:00,
2013-06-24 16:01:00,81.5,71.2,30.05,North,-999,0.0,0.0,71,0.00,,,-99.99,WeatherLink 5.7,2013-06-24 20:01:00,
2013-06-24 16:11:00,81.4,71.5,30.04,North,-999,0.0,1.0,72,0.00,,,-99.99,WeatherLink 5.7,2013-06-24 20:11:00,
2013-06-24 16:21:00,81.2,71.3,30.06,North,-999,0.0,1.0,72,0.00,,,-99.99,WeatherLink 5.7,2013-06-24 20:21:00,
2013-06-24 16:31:00,81.0,71.1,30.05,ENE,67,0.0,2.0,72,0.00,,,-99.99,WeatherLink 5.7,2013-06-24 20:31:00,
2013-06-24 16:41:00,80.8,70.9,30.05,ENE,67,0.0,1.0,72,0.00,,,-99.99,WeatherLink 5.7,2013-06-24 20:41:00,
2013-06-24 16:51:00,80.5,70.6,30.03,ENE,67,0.0,1.0,72,0.00,,,-99.99,WeatherLink 5.7,2013-06-24 20:51:00,
2013-06-24 17:02:00,80.3,70.9,30.03,ENE,67,0.0,1.0,73,0.00,,,-99.99,WeatherLink 5.7,2013-06-24 21:02:00,
2013-06-24 17:11:00,80.1,71.1,30.03,ENE,67,0.0,2.0,74,0.00,,,-99.99,WeatherLink 5.7,2013-06-24 21:11:00,
2013-06-24 17:21:00,80.3,71.6,30.03,NE,45,0.0,2.0,75,0.00,,,-99.99,WeatherLink 5.7,2013-06-24 21:21:00,
2013-06-24 17:32:00,80.7,72.0,30.02,NE,45,0.0,1.0,75,0.00,,,-99.99,WeatherLink 5.7,2013-06-24 21:32:00,
2013-06-24 17:42:00,80.3,70.4,30.02,ENE,67,0.0,2.0,72,0.00,,,-99.99,WeatherLink 5.7,2013-06-24 21:42:00,
2013-06-24 17:51:00,79.5,68.4,30.04,ENE,67,0.0,1.0,69,0.00,,,-99.99,WeatherLink 5.7,2013-06-24 21:51:00,
2013-06-24 18:01:00,78.5,66.2,30.03,ENE,67,0.0,2.0,66,0.00,,,-99.99,WeatherLink 5.7,2013-06-24 22:01:00,
2013-06-24 18:11:00,78.0,65.7,30.04,ENE,67,0.0,2.0,66,0.00,,,-99.99,WeatherLink 5.7,2013-06-24 22:11:00,
2013-06-24 18:21:00,77.5,65.2,30.05,ENE,67,1.0,4.0,66,0.00,,,-99.99,WeatherLink 5.7,2013-06-24 22:21:00,
2013-06-24 18:31:00,76.4,65.9,30.06,East,90,1.0,4.0,70,0.00,,,-99.99,WeatherLink 5.7,2013-06-24 22:31:00,
2013-06-24 18:42:00,75.3,66.0,30.07,East,90,1.0,3.0,73,0.00,,,-99.99,WeatherLink 5.7,2013-06-24 22:42:00,
2013-06-24 18:51:00,73.9,66.2,30.07,NNE,22,1.0,3.0,77,0.01,,,-99.99,WeatherLink 5.7,2013-06-24 22:51:00,
2013-06-24 19:01:00,72.5,66.7,30.06,NNE,22,0.0,1.0,82,0.03,,,-99.99,WeatherLink 5.7,2013-06-24 23:01:00,
2013-06-24 19:11:00,71.5,66.4,30.05,NNE,22,0.0,2.0,84,0.03,,,-99.99,WeatherLink 5.7,2013-06-24 23:11:00,
2013-06-24 19:21:00,71.0,66.6,30.05,North,-999,0.0,0.0,86,0.03,,,-99.99,WeatherLink 5.7,2013-06-24 23:21:00,
2013-06-24 19:31:00,70.7,66.3,30.05,NNE,22,0.0,1.0,86,0.03,,,-99.99,WeatherLink 5.7,2013-06-24 23:31:00,
2013-06-24 19:42:00,70.4,66.7,30.06,North,-999,0.0,0.0,88,0.03,,,-99.99,WeatherLink 5.7,2013-06-24 23:42:00,
2013-06-24 19:51:00,70.3,66.2,30.05,North,-999,0.0,0.0,87,0.02,,,-99.99,WeatherLink 5.7,2013-06-24 23:51:00,
2013-06-24 20:01:00,70.0,66.3,30.06,North,-999,0.0,0.0,88,0.00,,,-99.99,WeatherLink 5.7,2013-06-25 00:01:00,
2013-06-24 20:11:00,69.6,66.2,30.05,North,-999,0.0,0.0,89,0.00,,,-99.99,WeatherLink 5.7,2013-06-25 00:11:00,
2013-06-24 20:21:00,69.2,65.8,30.05,North,-999,0.0,0.0,89,0.00,,,-99.99,WeatherLink 5.7,2013-06-25 00:21:00,
2013-06-24 20:31:00,68.9,65.5,30.04,NNE,22,0.0,1.0,89,0.00,,,-99.99,WeatherLink 5.7,2013-06-25 00:31:00,
2013-06-24 20:41:00,68.9,65.5,30.05,North,-999,0.0,0.0,89,0.00,,,-99.99,WeatherLink 5.7,2013-06-25 00:41:00,
2013-06-24 20:51:00,68.8,65.4,30.05,North,-999,0.0,0.0,89,0.00,,,-99.99,WeatherLink 5.7,2013-06-25 00:51:00,
2013-06-24 21:01:00,68.6,65.5,30.05,North,-999,0.0,0.0,90,0.00,,,-99.99,WeatherLink 5.7,2013-06-25 01:01:00,
2013-06-24 21:12:00,68.4,65.7,30.06,North,-999,0.0,0.0,91,0.00,,,-99.99,WeatherLink 5.7,2013-06-25 01:12:00,
2013-06-24 21:21:00,68.3,65.6,30.05,NNE,22,0.0,1.0,91,0.00,,,-99.99,WeatherLink 5.7,2013-06-25 01:21:00,
2013-06-24 21:31:00,68.2,65.5,30.06,North,-999,0.0,0.0,91,0.00,,,-99.99,WeatherLink 5.7,2013-06-25 01:31:00,
2013-06-24 21:41:00,68.3,65.6,30.07,North,-999,0.0,0.0,91,0.00,,,-99.99,WeatherLink 5.7,2013-06-25 01:41:00,
2013-06-24 21:51:00,68.5,65.4,30.06,NNE,22,0.0,1.0,90,0.00,,,-99.99,WeatherLink 5.7,2013-06-25 01:51:00,
2013-06-24 22:01:00,68.8,65.7,30.06,NNE,22,0.0,1.0,90,0.00,,,-99.99,WeatherLink 5.7,2013-06-25 02:01:00,
2013-06-24 22:11:00,68.7,66.0,30.07,North,-999,0.0,0.0,91,0.00,,,-99.99,WeatherLink 5.7,2013-06-25 02:11:00,
2013-06-24 22:21:00,68.5,65.8,30.07,North,-999,0.0,1.0,91,0.00,,,-99.99,WeatherLink 5.7,2013-06-25 02:21:00,
2013-06-24 22:32:00,68.5,65.8,30.07,North,-999,0.0,0.0,91,0.00,,,-99.99,WeatherLink 5.7,2013-06-25 02:32:00,
2013-06-24 22:41:00,68.6,65.9,30.07,North,-999,0.0,0.0,91,0.00,,,-99.99,WeatherLink 5.7,2013-06-25 02:41:00,
2013-06-24 22:51:00,68.7,66.0,30.07,North,-999,0.0,0.0,91,0.00,,,-99.99,WeatherLink 5.7,2013-06-25 02:51:00,
2013-06-24 23:01:00,68.7,66.0,30.07,North,-999,0.0,0.0,91,0.00,,,-99.99,WeatherLink 5.7,2013-06-25 03:01:00,
2013-06-24 23:11:00,68.7,66.0,30.06,North,-999,0.0,0.0,91,0.00,,,-99.99,WeatherLink 5.7,2013-06-25 03:11:00,
2013-06-24 23:22:00,68.7,66.0,30.06,North,-999,0.0,0.0,91,0.00,,,-99.99,WeatherLink 5.7,2013-06-25 03:22:00,
2013-06-24 23:32:00,68.8,66.1,30.06,North,-999,0.0,0.0,91,0.00,,,-99.99,WeatherLink 5.7,2013-06-25 03:32:00,
2013-06-24 23:42:00,68.7,65.6,30.05,North,-999,0.0,0.0,90,0.00,,,-99.99,WeatherLink 5.7,2013-06-25 03:42:00,
2013-06-24 23:52:00,68.7,65.6,30.05,North,-999,0.0,0.0,90,0.00,,,-99.99,WeatherLink 5.7,2013-06-25 03:52:00,